Location: Góry Miechowskie
(50.3599°N, 20.1803°E)
Time: 11:55:10
(UTC+00:00)

Vanguard 1 Rocket - Pass Details

Date: 17 September 2024
Orbit: 650 x 4218 km, 34.3° (Epoch: 12 October)

Event Time Altitude Azimuth Distance (km) Brightness Sun altitude
Rises 00:57:58 0° 209° (SSW) 5,118 - -29.1°
Reaches altitude 10° 01:01:19 10° 199° (SSW) 4,551 - -28.8°
Exits shadow 01:06:02 23° 179° (S) 4,109 10.3 -28.3°
Maximum altitude 01:12:45 32° 143° (SE) 4,292 10.7 -27.5°
Drops below altitude 10° 01:30:33 10° 92° (E) 7,124 12.5 -25.4°
Sets 01:37:39 0° 84° (E) 8,396 13.2 -24.5°
